When you browse on this site, cookies collect data to enhance your experience and personalize the content and advertising you see.
Visit our Privacy Policy to learn more. By continuing to use the site, you agree to this use of cookies and data.
  • In Deutschland
  • Länderverzeichnis
  • Für 7 Tage
  • Wassertemperatur
  • Wetterkarte
  • Widgets
  • user-avatar
    Anmelden

    Stündliche Wetter Melbourne

    Heute, 25 Mai, Montag

    Zeit Temperatur Niederschläge Wind Luftdruck Luftfeuchtigkeit
    00:00 +8°C° 0 mm 2 m/S 767 mmHg 83%
    01:00 +8°C° 0 mm 2 m/S 767 mmHg 84%
    02:00 +8°C° 0 mm 2 m/S 767 mmHg 84%
    03:00 +8°C° 0 mm 2 m/S 767 mmHg 84%
    04:00 +7°C° 0 mm 2 m/S 767 mmHg 84%
    05:00 +7°C° 0 mm 2 m/S 767 mmHg 85%
    06:00 +7°C° 0 mm 2 m/S 767 mmHg 85%
    07:00 +7°C° 0 mm 2 m/S 767 mmHg 86%
    08:00 +8°C° 0 mm 2 m/S 767 mmHg 82%
    09:00 +9°C° 0 mm 3 m/S 767 mmHg 77%
    10:00 +11°C° 0 mm 4 m/S 767 mmHg 73%
    11:00 +12°C° 0 mm 4 m/S 767 mmHg 69%
    12:00 +13°C° 0 mm 4 m/S 767 mmHg 65%
    13:00 +14°C° 0 mm 3 m/S 766 mmHg 61%
    14:00 +14°C° 0 mm 3 m/S 766 mmHg 61%
    15:00 +16°C° 0 mm 3 m/S 766 mmHg 61%
    16:00 +16°C° 0 mm 3 m/S 766 mmHg 60%
    17:00 +13°C° 0 mm 3 m/S 767 mmHg 67%
    18:00 +12°C° 0 mm 3 m/S 767 mmHg 74%
    19:00 +10°C° 0 mm 2 m/S 767 mmHg 80%
    20:00 +10°C° 0 mm 2 m/S 767 mmHg 83%
    21:00 +9°C° 0 mm 2 m/S 768 mmHg 85%
    22:00 +9°C° 0 mm 2 m/S 768 mmHg 87%
    23:00 +8°C° 0 mm 2 m/S 768 mmHg 87%

    Morgen, 26 Mai, Dienstag

    Zeit Temperatur Niederschläge Wind Luftdruck Luftfeuchtigkeit
    00:00 +8°C° 0 mm 2 m/S 767 mmHg 88%
    01:00 +9°C° 0 mm 1 m/S 767 mmHg 88%
    02:00 +8°C° 0 mm 1 m/S 767 mmHg 88%
    03:00 +8°C° 0 mm 1 m/S 767 mmHg 88%
    04:00 +8°C° 0 mm 1 m/S 767 mmHg 87%
    05:00 +8°C° 0 mm 1 m/S 767 mmHg 87%
    06:00 +8°C° 0 mm 1 m/S 767 mmHg 86%
    07:00 +7°C° 0 mm 1 m/S 767 mmHg 85%
    08:00 +9°C° 0 mm 1 m/S 767 mmHg 77%
    09:00 +10°C° 0 mm 2 m/S 767 mmHg 70%
    10:00 +12°C° 0 mm 2 m/S 767 mmHg 62%
    11:00 +14°C° 0 mm 2 m/S 766 mmHg 56%
    12:00 +17°C° 0 mm 2 m/S 766 mmHg 50%
    13:00 +19°C° 0 mm 2 m/S 765 mmHg 43%
    14:00 +18°C° 0 mm 2 m/S 765 mmHg 46%
    15:00 +18°C° 0 mm 2 m/S 765 mmHg 50%
    16:00 +17°C° 0 mm 2 m/S 764 mmHg 53%
    17:00 +16°C° 0 mm 2 m/S 765 mmHg 59%
    18:00 +14°C° 0 mm 2 m/S 765 mmHg 65%
    19:00 +13°C° 0 mm 2 m/S 765 mmHg 72%
    20:00 +12°C° 0 mm 2 m/S 765 mmHg 73%
    21:00 +12°C° 0 mm 2 m/S 766 mmHg 74%
    22:00 +10°C° 0 mm 3 m/S 766 mmHg 75%
    23:00 +10°C° 0 mm 2 m/S 766 mmHg 75%

    übermorgen, 27 Mai, Mittwoch

    Zeit Temperatur Niederschläge Wind Luftdruck Luftfeuchtigkeit
    00:00 +10°C° 0 mm 2 m/S 765 mmHg 75%
    01:00 +10°C° 0 mm 2 m/S 765 mmHg 75%
    02:00 +10°C° 0 mm 2 m/S 765 mmHg 75%
    03:00 +10°C° 0 mm 2 m/S 765 mmHg 74%
    04:00 +10°C° 0 mm 2 m/S 764 mmHg 74%
    05:00 +10°C° 0 mm 2 m/S 765 mmHg 73%
    06:00 +12°C° 0 mm 2 m/S 765 mmHg 72%
    07:00 +11°C° 0 mm 3 m/S 765 mmHg 71%
    08:00 +12°C° 0.2 mm 3 m/S 765 mmHg 71%
    09:00 +13°C° 0.2 mm 3 m/S 765 mmHg 71%
    10:00 +14°C° 0.2 mm 4 m/S 765 mmHg 70%
    11:00 +14°C° 0.1 mm 4 m/S 764 mmHg 69%
    12:00 +15°C° 0.1 mm 4 m/S 764 mmHg 68%
    13:00 +15°C° 0.1 mm 4 m/S 764 mmHg 66%
    14:00 +15°C° 0 mm 4 m/S 763 mmHg 67%
    15:00 +15°C° 0 mm 4 m/S 763 mmHg 68%
    16:00 +15°C° 0 mm 4 m/S 763 mmHg 69%
    17:00 +14°C° 0 mm 4 m/S 763 mmHg 73%
    18:00 +13°C° 0 mm 4 m/S 764 mmHg 77%
    19:00 +12°C° 0 mm 4 m/S 764 mmHg 82%
    20:00 +11°C° 0 mm 3 m/S 764 mmHg 83%
    21:00 +11°C° 0 mm 3 m/S 764 mmHg 84%
    22:00 +11°C° 0 mm 3 m/S 764 mmHg 85%
    23:00 +11°C° 0 mm 3 m/S 764 mmHg 84%

    28 Mai, Donnerstag

    Zeit Temperatur Niederschläge Wind Luftdruck Luftfeuchtigkeit
    00:00 +11°C° 0 mm 3 m/S 764 mmHg 84%
    01:00 +11°C° 0 mm 3 m/S 764 mmHg 84%
    02:00 +11°C° 0 mm 3 m/S 764 mmHg 83%
    03:00 +11°C° 0 mm 3 m/S 764 mmHg 82%
    04:00 +12°C° 0 mm 2 m/S 765 mmHg 80%
    05:00 +12°C° 0 mm 2 m/S 765 mmHg 82%
    06:00 +10°C° 0 mm 2 m/S 765 mmHg 84%
    07:00 +10°C° 0 mm 2 m/S 766 mmHg 85%
    08:00 +12°C° 0 mm 1 m/S 766 mmHg 80%
    09:00 +13°C° 0 mm 1 m/S 766 mmHg 75%
    10:00 +14°C° 0 mm 1 m/S 766 mmHg 70%
    11:00 +15°C° 0 mm 1 m/S 766 mmHg 66%
    12:00 +16°C° 0 mm 1 m/S 766 mmHg 61%
    13:00 +18°C° 0 mm 1 m/S 766 mmHg 56%
    14:00 +18°C° 0 mm 1 m/S 766 mmHg 59%
    15:00 +16°C° 0 mm 1 m/S 766 mmHg 62%
    16:00 +16°C° 0 mm 1 m/S 765 mmHg 64%
    17:00 +15°C° 0 mm 1 m/S 766 mmHg 67%
    18:00 +14°C° 0 mm 1 m/S 766 mmHg 69%
    19:00 +13°C° 0 mm 1 m/S 767 mmHg 72%
    20:00 +13°C° 0 mm 1 m/S 767 mmHg 74%
    21:00 +12°C° 0 mm 1 m/S 767 mmHg 76%
    22:00 +12°C° 0 mm 1 m/S 768 mmHg 79%
    23:00 +11°C° 0 mm 1 m/S 768 mmHg 80%

    29 Mai, Freitag

    Zeit Temperatur Niederschläge Wind Luftdruck Luftfeuchtigkeit
    00:00 +11°C° 0 mm 1 m/S 768 mmHg 81%
    01:00 +10°C° 0 mm 1 m/S 768 mmHg 82%
    02:00 +10°C° 0 mm 1 m/S 768 mmHg 81%
    03:00 +9°C° 0 mm 2 m/S 768 mmHg 81%
    04:00 +9°C° 0 mm 2 m/S 767 mmHg 81%
    05:00 +9°C° 0 mm 2 m/S 768 mmHg 81%
    06:00 +8°C° 0 mm 2 m/S 768 mmHg 82%
    07:00 +8°C° 0 mm 2 m/S 768 mmHg 82%
    08:00 +10°C° 0 mm 2 m/S 768 mmHg 77%
    09:00 +11°C° 0 mm 3 m/S 768 mmHg 72%
    10:00 +13°C° 0 mm 3 m/S 768 mmHg 68%
    11:00 +14°C° 0 mm 3 m/S 768 mmHg 63%
    12:00 +16°C° 0 mm 3 m/S 767 mmHg 59%
    13:00 +17°C° 0 mm 4 m/S 767 mmHg 55%
    14:00 +17°C° 0 mm 4 m/S 766 mmHg 56%
    15:00 +17°C° 0 mm 4 m/S 766 mmHg 57%
    16:00 +17°C° 0 mm 4 m/S 766 mmHg 58%
    17:00 +16°C° 0 mm 3 m/S 766 mmHg 62%
    18:00 +13°C° 0 mm 3 m/S 766 mmHg 67%
    19:00 +12°C° 0 mm 3 m/S 766 mmHg 71%
    20:00 +12°C° 0 mm 3 m/S 766 mmHg 72%
    21:00 +12°C° 0 mm 3 m/S 766 mmHg 73%
    22:00 +11°C° 0 mm 4 m/S 766 mmHg 74%
    23:00 +11°C° 0 mm 4 m/S 766 mmHg 74%

    30 Mai, Samstag

    Zeit Temperatur Niederschläge Wind Luftdruck Luftfeuchtigkeit
    00:00 +11°C° 0 mm 4 m/S 766 mmHg 74%
    01:00 +10°C° 0 mm 5 m/S 766 mmHg 74%
    02:00 +10°C° 0 mm 5 m/S 766 mmHg 74%
    03:00 +9°C° 0 mm 5 m/S 765 mmHg 74%
    04:00 +9°C° 0 mm 5 m/S 765 mmHg 73%
    05:00 +9°C° 0 mm 6 m/S 765 mmHg 73%
    06:00 +9°C° 0 mm 6 m/S 765 mmHg 73%
    07:00 +9°C° 0 mm 6 m/S 765 mmHg 73%
    08:00 +10°C° 0 mm 6 m/S 765 mmHg 70%
    09:00 +11°C° 0 mm 7 m/S 765 mmHg 66%
    10:00 +12°C° 0 mm 7 m/S 765 mmHg 62%
    11:00 +14°C° 0 mm 7 m/S 764 mmHg 59%
    12:00 +15°C° 0 mm 7 m/S 763 mmHg 56%
    13:00 +16°C° 0 mm 7 m/S 763 mmHg 53%
    14:00 +16°C° 0 mm 7 m/S 762 mmHg 55%
    15:00 +16°C° 0 mm 7 m/S 761 mmHg 57%
    16:00 +15°C° 0 mm 7 m/S 761 mmHg 58%
    17:00 +15°C° 0 mm 7 m/S 761 mmHg 61%
    18:00 +14°C° 0 mm 7 m/S 761 mmHg 63%
    19:00 +12°C° 0 mm 7 m/S 761 mmHg 66%
    20:00 +12°C° 0 mm 7 m/S 760 mmHg 65%
    21:00 +12°C° 0 mm 7 m/S 760 mmHg 64%
    22:00 +12°C° 0 mm 7 m/S 760 mmHg 63%
    23:00 +12°C° 0 mm 7 m/S 759 mmHg 61%
    Mehr zeigen